| time (UTC) | temp F | wind direction | speed MPH | gust MPH | rain 1hr in | rain 24hr in | rain mn in | humidity % | barometer mb |
| 20260506191551 | 53 | 135 | 2.0 | 8.0 | 0.02 | 0.75 | 0.50 | 94 | 1005.3 |
| 20260506190049 | 54 | 321 | 1.0 | 5.0 | 0.01 | 0.74 | 0.49 | 95 | 1005.2 |
| 20260506184553 | 54 | 9 | 1.0 | 5.0 | 0.00 | 0.73 | 0.48 | 95 | 1005.2 |
| 20260506183043 | 54 | 302 | 2.0 | 10.0 | 0.02 | 0.73 | 0.48 | 94 | 1005.1 |
| 20260506181540 | 54 | 283 | 3.0 | 8.0 | 0.03 | 0.73 | 0.48 | 96 | 1005.2 |
| 20260506180037 | 54 | 334 | 1.0 | 4.0 | 0.06 | 0.73 | 0.48 | 96 | 1005.6 |
| 20260506174534 | 54 | 38 | 0.0 | 3.0 | 0.08 | 0.73 | 0.48 | 97 | 1005.8 |
| 20260506173042 | 54 | 36 | 1.0 | 5.0 | 0.10 | 0.71 | 0.46 | 96 | 1006.0 |
| 20260506171535 | 53 | 308 | 1.0 | 5.0 | 0.12 | 0.69 | 0.44 | 97 | 1006.0 |
| 20260506170104 | 53 | 302 | 2.0 | 6.0 | 0.13 | 0.67 | 0.42 | 97 | 1006.0 |
| 20260506164601 | 53 | 323 | 2.0 | 7.0 | 0.13 | 0.65 | 0.40 | 97 | 1006.0 |
| 20260506163126 | 53 | 315 | 2.0 | 6.0 | 0.11 | 0.61 | 0.36 | 96 | 1006.1 |
| 20260506161554 | 53 | 26 | 2.0 | 9.0 | 0.10 | 0.56 | 0.32 | 96 | 1006.3 |
| 20260506160052 | 53 | 321 | 2.0 | 9.0 | 0.11 | 0.54 | 0.28 | 96 | 1006.6 |
| 20260506154553 | 53 | 15 | 3.0 | 7.0 | 0.11 | 0.52 | 0.27 | 96 | 1006.7 |
| 20260506153020 | 53 | 52 | 2.0 | 8.0 | 0.10 | 0.49 | 0.24 | 96 | 1006.9 |
| 20260506151519 | 53 | 69 | 1.0 | 9.0 | 0.09 | 0.47 | 0.22 | 96 | 1006.9 |
| 20260506150046 | 53 | 325 | 2.0 | 8.0 | 0.07 | 0.43 | 0.18 | 96 | 1007.1 |
| 20260506144546 | 53 | 5 | 2.0 | 9.0 | 0.06 | 0.40 | 0.15 | 96 | 1007.2 |
| 20260506143044 | 53 | 351 | 2.0 | 9.0 | 0.07 | 0.39 | 0.14 | 96 | 1007.2 |
| 20260506141543 | 53 | 299 | 1.0 | 7.0 | 0.07 | 0.38 | 0.13 | 96 | 1007.3 |
| 20260506140042 | 53 | 298 | 2.0 | 10.0 | 0.07 | 0.36 | 0.11 | 95 | 1007.3 |
| 20260506134540 | 53 | 294 | 3.0 | 8.0 | 0.07 | 0.34 | 0.09 | 96 | 1007.2 |
| 20260506133036 | 52 | 348 | 2.0 | 8.0 | 0.06 | 0.32 | 0.07 | 97 | 1007.2 |
| 20260506131537 | 52 | 311 | 1.0 | 5.0 | 0.06 | 0.31 | 0.06 | 97 | 1007.4 |
| 20260506130032 | 51 | 22 | 0.0 | 4.0 | 0.04 | 0.28 | 0.04 | 97 | 1007.6 |
| 20260506124532 | 51 | 219 | 1.0 | 4.0 | 0.02 | 0.27 | 0.02 | 96 | 1007.8 |
| 20260506123028 | 51 | 69 | 0.0 | 2.0 | 0.01 | 0.26 | 0.01 | 96 | 1007.9 |
| 20260506121527 | 52 | 68 | 1.0 | 8.0 | 0.00 | 0.25 | 0.00 | 95 | 1007.7 |
| 20260506120024 | 51 | 284 | 6.0 | 21.0 | 0.00 | 0.25 | 0.00 | 97 | 1007.7 |
| 20260506114524 | 50 | 94 | 7.0 | 12.0 | 0.00 | 0.25 | 0.00 | 96 | 1007.6 |
| 20260506113020 | 50 | 96 | 3.0 | 6.0 | 0.00 | 0.25 | 0.00 | 95 | 1008.0 |
| 20260506111526 | 50 | 190 | 2.0 | 7.0 | 0.00 | 0.25 | 0.00 | 95 | 1007.8 |
| 20260506110017 | 50 | 108 | 0.0 | 5.0 | 0.00 | 0.25 | 0.00 | 94 | 1007.7 |
| 20260506104512 | 50 | 263 | 4.0 | 8.0 | 0.00 | 0.25 | 0.00 | 92 | 1007.7 |
| 20260506103008 | 50 | 237 | 2.0 | 8.0 | 0.00 | 0.25 | 0.00 | 92 | 1007.4 |
| 20260506101504 | 50 | 237 | 3.0 | 9.0 | 0.00 | 0.25 | 0.00 | 94 | 1007.4 |
| 20260506100004 | 49 | 244 | 1.0 | 4.0 | 0.00 | 0.25 | 0.00 | 95 | 1007.9 |
| 20260506094503 | 49 | 263 | 1.0 | 3.0 | 0.00 | 0.25 | 0.00 | 95 | 1007.8 |
| 20260506093101 | 49 | 238 | 2.0 | 4.0 | 0.00 | 0.25 | 0.00 | 95 | 1007.9 |
| 20260506091556 | 50 | 236 | 2.0 | 4.0 | 0.00 | 0.25 | 0.00 | 94 | 1007.9 |
| 20260506090109 | 50 | 269 | 1.0 | 3.0 | 0.00 | 0.25 | 0.00 | 94 | 1008.3 |
| 20260506084609 | 50 | 269 | 1.0 | 3.0 | 0.00 | 0.25 | 0.00 | 95 | 1008.0 |
| 20260506083052 | 50 | 271 | 0.0 | 0.0 | 0.01 | 0.25 | 0.25 | 95 | 1008.2 |
| 20260506081549 | 50 | 154 | 1.0 | 3.0 | 0.01 | 0.25 | 0.25 | 95 | 1008.6 |
| 20260506073045 | 50 | 231 | 0.0 | 3.0 | 0.00 | 0.24 | 0.24 | 94 | 1008.2 |
| 20260506071542 | 51 | 223 | 2.0 | 4.0 | 0.00 | 0.24 | 0.24 | 94 | 1008.3 |
| 20260506061538 | 51 | 171 | 0.0 | 0.0 | 0.06 | 0.24 | 0.24 | 95 | 1008.5 |
| 20260506044522 | 54 | 254 | 0.0 | 4.0 | 0.04 | 0.11 | 0.11 | 91 | 1008.6 |
| 20260506043020 | 55 | 76 | 1.0 | 7.0 | 0.02 | 0.09 | 0.09 | 91 | 1008.9 |
| 20260506041524 | 56 | 64 | 3.0 | 8.0 | 0.00 | 0.07 | 0.07 | 88 | 1008.7 |
| 20260506040011 | 57 | 5 | 3.0 | 10.0 | 0.00 | 0.07 | 0.07 | 86 | 1008.4 |
| 20260506034511 | 57 | 115 | 3.0 | 11.0 | 0.00 | 0.07 | 0.07 | 85 | 1008.4 |
| 20260506033010 | 57 | 323 | 1.0 | 6.0 | 0.00 | 0.07 | 0.07 | 83 | 1008.1 |
| 20260506031508 | 58 | 44 | 2.0 | 4.0 | 0.00 | 0.07 | 0.07 | 83 | 1008.2 |
| 20260506030006 | 58 | 355 | 0.0 | 3.0 | 0.00 | 0.07 | 0.07 | 82 | 1007.9 |
| 20260506024507 | 58 | 340 | 1.0 | 3.0 | 0.00 | 0.07 | 0.07 | 81 | 1007.7 |
| 20260506023007 | 58 | 14 | 0.0 | 3.0 | 0.00 | 0.07 | 0.07 | 81 | 1007.8 |
| 20260506021504 | 58 | 308 | 2.0 | 4.0 | 0.00 | 0.07 | 0.07 | 80 | 1008.0 |
| 20260506020003 | 58 | 49 | 0.0 | 4.0 | 0.00 | 0.07 | 0.07 | 79 | 1008.1 |
| 20260506014502 | 58 | 331 | 0.0 | 5.0 | 0.00 | 0.07 | 0.07 | 80 | 1007.6 |
| 20260506013105 | 58 | 302 | 1.0 | 4.0 | 0.00 | 0.07 | 0.07 | 80 | 1007.4 |
| 20260506011531 | 57 | 294 | 0.0 | 4.0 | 0.00 | 0.07 | 0.07 | 80 | 1007.4 |
| 20260506010033 | 58 | 345 | 1.0 | 4.0 | 0.00 | 0.07 | 0.07 | 79 | 1007.2 |
| 20260506004604 | 58 | 305 | 1.0 | 5.0 | 0.00 | 0.07 | 0.07 | 79 | 1007.1 |
| 20260506003059 | 59 | 299 | 2.0 | 3.0 | 0.00 | 0.07 | 0.07 | 78 | 1007.0 |
| 20260506001528 | 59 | 336 | 2.0 | 4.0 | 0.00 | 0.07 | 0.07 | 78 | 1007.0 |
| 20260506000027 | 59 | 350 | 0.0 | 5.0 | 0.00 | 0.07 | 0.07 | 78 | 1007.0 |
| 20260505234558 | 59 | 88 | 1.0 | 6.0 | 0.00 | 0.07 | 0.07 | 77 | 1007.3 |
| 20260505233058 | 60 | 130 | 4.0 | 12.0 | 0.00 | 0.07 | 0.07 | 75 | 1007.4 |
| 20260505231555 | 60 | 47 | 5.0 | 11.0 | 0.00 | 0.07 | 0.07 | 76 | 1007.2 |
| 20260505230119 | 59 | 29 | 2.0 | 13.0 | 0.00 | 0.07 | 0.07 | 76 | 1006.7 |
| 20260505224553 | 59 | 117 | 5.0 | 14.0 | 0.00 | 0.07 | 0.07 | 76 | 1006.7 |
| 20260505223053 | 59 | 25 | 5.0 | 10.0 | 0.00 | 0.07 | 0.07 | 78 | 1006.6 |
| 20260505221523 | 60 | 41 | 5.0 | 11.0 | 0.00 | 0.07 | 0.07 | 78 | 1006.6 |
| 20260505220033 | 60 | 133 | 6.0 | 18.0 | 0.00 | 0.07 | 0.07 | 78 | 1006.3 |
| 20260505214522 | 59 | 113 | 5.0 | 14.0 | 0.01 | 0.07 | 0.07 | 79 | 1006.9 |
| 20260505213019 | 60 | 244 | 5.0 | 12.0 | 0.02 | 0.07 | 0.07 | 77 | 1006.4 |
| 20260505211519 | 60 | 154 | 2.0 | 8.0 | 0.02 | 0.07 | 0.07 | 81 | 1005.1 |
| 20260505210018 | 58 | 107 | 4.0 | 16.0 | 0.05 | 0.07 | 0.07 | 85 | 1004.8 |
| 20260505204549 | 58 | 49 | 6.0 | 19.0 | 0.06 | 0.06 | 0.06 | 86 | 1006.0 |
| 20260505203046 | 57 | 33 | 6.0 | 14.0 | 0.05 | 0.05 | 0.05 | 87 | 1006.4 |
| 20260505201548 | 57 | 52 | 3.0 | 15.0 | 0.05 | 0.05 | 0.05 | 87 | 1005.8 |
| 20260505200043 | 59 | 43 | 8.0 | 30.0 | 0.02 | 0.02 | 0.02 | 82 | 1006.0 |
| 20260505194639 | 63 | 116 | 6.0 | 15.0 | 0.00 | 0.00 | 0.00 | 70 | 1004.7 |
| 20260505193044 | 70 | 71 | 11.0 | 22.0 | 0.00 | 0.00 | 0.00 | 52 | 1004.1 |